Year,Month,Day,Hour,Minute,Value (Times are PST for temperature in C)
2009,04,26,00,00,8.40
2009,04,26,00,01,8.40
2009,04,26,00,02,8.40
2009,04,26,00,03,8.40
2009,04,26,00,04,8.30
2009,04,26,00,05,8.30
2009,04,26,00,06,8.30
2009,04,26,00,07,8.30
2009,04,26,00,08,8.30
2009,04,26,00,09,8.20
2009,04,26,00,10,8.20
2009,04,26,00,11,8.20
2009,04,26,00,12,8.20
2009,04,26,00,13,8.20
2009,04,26,00,14,8.20
2009,04,26,00,15,8.20
2009,04,26,00,16,8.20
2009,04,26,00,17,8.10
2009,04,26,00,18,8.10
2009,04,26,00,19,8.10
2009,04,26,00,20,8.10
2009,04,26,00,21,8.00
2009,04,26,00,22,8.00
2009,04,26,00,23,8.00
2009,04,26,00,24,8.00
2009,04,26,00,25,8.00
2009,04,26,00,26,8.00
2009,04,26,00,27,7.90
2009,04,26,00,28,7.90
2009,04,26,00,29,7.90
2009,04,26,00,30,7.90
2009,04,26,00,31,7.90
2009,04,26,00,32,7.90
2009,04,26,00,33,7.90
2009,04,26,00,34,7.90
2009,04,26,00,35,7.80
2009,04,26,00,36,7.80
2009,04,26,00,37,7.70
2009,04,26,00,38,7.70
2009,04,26,00,39,7.70
2009,04,26,00,40,7.70
2009,04,26,00,41,7.70
2009,04,26,00,42,7.70
2009,04,26,00,43,7.70
2009,04,26,00,44,7.70
2009,04,26,00,45,7.70
2009,04,26,00,46,7.70
2009,04,26,00,47,7.60
2009,04,26,00,48,7.60
2009,04,26,00,49,7.60
2009,04,26,00,50,7.60
2009,04,26,00,51,7.60
2009,04,26,00,52,7.60
2009,04,26,00,53,7.60
2009,04,26,00,54,7.60
2009,04,26,00,55,7.60
2009,04,26,00,56,7.50
2009,04,26,00,57,7.50
2009,04,26,00,58,7.50
2009,04,26,00,59,7.50
2009,04,26,01,00,7.50
2009,04,26,01,01,7.50
2009,04,26,01,02,7.50
2009,04,26,01,03,7.50
2009,04,26,01,04,7.50
2009,04,26,01,05,7.50
2009,04,26,01,06,7.50
2009,04,26,01,07,7.40
2009,04,26,01,08,7.40
2009,04,26,01,09,7.40
2009,04,26,01,10,7.40
2009,04,26,01,11,7.40
2009,04,26,01,12,7.40
2009,04,26,01,13,7.40
2009,04,26,01,14,7.40
2009,04,26,01,15,7.40
2009,04,26,01,16,7.40
2009,04,26,01,17,7.40
2009,04,26,01,18,7.40
2009,04,26,01,19,7.30
2009,04,26,01,20,7.30
2009,04,26,01,21,7.30
2009,04,26,01,22,7.30
2009,04,26,01,23,7.30
2009,04,26,01,24,7.30
2009,04,26,01,25,7.30
2009,04,26,01,26,7.30
2009,04,26,01,27,7.30
2009,04,26,01,28,7.20
2009,04,26,01,29,7.20
2009,04,26,01,30,7.20
2009,04,26,01,31,7.20
2009,04,26,01,32,7.20
2009,04,26,01,33,7.10
2009,04,26,01,34,7.10
2009,04,26,01,35,7.10
2009,04,26,01,36,7.10
2009,04,26,01,37,7.10
2009,04,26,01,38,7.10
2009,04,26,01,39,7.10
2009,04,26,01,40,7.10
2009,04,26,01,41,7.10
2009,04,26,01,42,7.10
2009,04,26,01,43,7.10
2009,04,26,01,44,7.10
2009,04,26,01,45,7.10
2009,04,26,01,46,7.10
2009,04,26,01,47,7.10
2009,04,26,01,48,7.10
2009,04,26,01,49,7.20
2009,04,26,01,50,7.20
2009,04,26,01,51,7.20
2009,04,26,01,52,7.10
2009,04,26,01,53,7.10
2009,04,26,01,54,7.10
2009,04,26,01,55,7.00
2009,04,26,01,56,7.00
2009,04,26,01,57,6.90
2009,04,26,01,58,6.80
2009,04,26,01,59,6.70
2009,04,26,02,00,6.70
2009,04,26,02,01,6.60
2009,04,26,02,02,6.60
2009,04,26,02,03,6.50
2009,04,26,02,04,6.50
2009,04,26,02,05,6.40
2009,04,26,02,06,6.40
2009,04,26,02,07,6.40
2009,04,26,02,08,6.30
2009,04,26,02,09,6.30
2009,04,26,02,10,6.30
2009,04,26,02,11,6.30
2009,04,26,02,12,6.20
2009,04,26,02,13,6.20
2009,04,26,02,14,6.20
2009,04,26,02,15,6.20
2009,04,26,02,16,6.20
2009,04,26,02,17,6.20
2009,04,26,02,18,6.20
2009,04,26,02,19,6.20
2009,04,26,02,20,6.10
2009,04,26,02,21,6.10
2009,04,26,02,22,6.10
2009,04,26,02,23,6.10
2009,04,26,02,24,6.10
2009,04,26,02,25,6.10
2009,04,26,02,26,6.10
2009,04,26,02,27,6.20
2009,04,26,02,28,6.20
2009,04,26,02,29,6.30
2009,04,26,02,30,6.40
2009,04,26,02,31,6.50
2009,04,26,02,32,6.50
2009,04,26,02,33,6.60
2009,04,26,02,34,6.60
2009,04,26,02,35,6.60
2009,04,26,02,36,6.60
2009,04,26,02,37,6.60
2009,04,26,02,38,6.60
2009,04,26,02,39,6.70
2009,04,26,02,40,6.70
2009,04,26,02,41,6.70
2009,04,26,02,42,6.70
2009,04,26,02,43,6.70
2009,04,26,02,44,6.70
2009,04,26,02,45,6.70
2009,04,26,02,46,6.70
2009,04,26,02,47,6.70
2009,04,26,02,48,6.70
2009,04,26,02,49,6.70
2009,04,26,02,50,6.70
2009,04,26,02,51,6.80
2009,04,26,02,52,6.70
2009,04,26,02,53,6.70
2009,04,26,02,54,6.80
2009,04,26,02,55,6.80
2009,04,26,02,56,6.80
2009,04,26,02,57,6.80
2009,04,26,02,58,6.80
2009,04,26,02,59,6.80
2009,04,26,03,00,6.80
2009,04,26,03,01,6.80
2009,04,26,03,02,6.80
2009,04,26,03,03,6.80
2009,04,26,03,04,6.80
2009,04,26,03,05,6.80
2009,04,26,03,06,6.70
2009,04,26,03,07,6.70
2009,04,26,03,08,6.70
2009,04,26,03,09,6.70
2009,04,26,03,10,6.70
2009,04,26,03,11,6.70
2009,04,26,03,12,6.60
2009,04,26,03,13,6.60
2009,04,26,03,14,6.60
2009,04,26,03,15,6.60
2009,04,26,03,16,6.50
2009,04,26,03,17,6.50
2009,04,26,03,18,6.40
2009,04,26,03,19,6.40
2009,04,26,03,20,6.40
2009,04,26,03,21,6.30
2009,04,26,03,22,6.30
2009,04,26,03,23,6.20
2009,04,26,03,24,6.20
2009,04,26,03,25,6.20
2009,04,26,03,26,6.10
2009,04,26,03,27,6.10
2009,04,26,03,28,6.10
2009,04,26,03,29,6.10
2009,04,26,03,30,6.10
2009,04,26,03,31,6.10
2009,04,26,03,32,6.10
2009,04,26,03,33,6.00
2009,04,26,03,34,6.00
2009,04,26,03,35,6.00
2009,04,26,03,36,5.90
2009,04,26,03,37,5.90
2009,04,26,03,38,5.80
2009,04,26,03,39,5.80
2009,04,26,03,40,5.80
2009,04,26,03,41,5.80
2009,04,26,03,42,5.80
2009,04,26,03,43,5.80
2009,04,26,03,44,5.80
2009,04,26,03,45,5.80
2009,04,26,03,46,5.80
2009,04,26,03,47,5.70
2009,04,26,03,48,5.70
2009,04,26,03,49,5.70
2009,04,26,03,50,5.70
2009,04,26,03,51,5.70
2009,04,26,03,52,5.70
2009,04,26,03,53,5.70
2009,04,26,03,54,5.70
2009,04,26,03,55,5.70
2009,04,26,03,56,5.70
2009,04,26,03,57,5.70
2009,04,26,03,58,5.70
2009,04,26,03,59,5.80
2009,04,26,04,00,5.80
2009,04,26,04,01,5.80
2009,04,26,04,02,5.80
2009,04,26,04,03,5.80
2009,04,26,04,04,5.80
2009,04,26,04,05,5.80
2009,04,26,04,06,5.80
2009,04,26,04,07,5.80
2009,04,26,04,08,5.80
2009,04,26,04,09,5.70
2009,04,26,04,10,5.70
2009,04,26,04,11,5.70
2009,04,26,04,12,5.60
2009,04,26,04,13,5.60
2009,04,26,04,14,5.60
2009,04,26,04,15,5.50
2009,04,26,04,16,5.40
2009,04,26,04,17,5.40
2009,04,26,04,18,5.30
2009,04,26,04,19,5.30
2009,04,26,04,20,5.30
2009,04,26,04,21,5.30
2009,04,26,04,22,5.30
2009,04,26,04,23,5.20
2009,04,26,04,24,5.20
2009,04,26,04,25,5.20
2009,04,26,04,26,5.20
2009,04,26,04,27,5.10
2009,04,26,04,28,5.10
2009,04,26,04,29,5.10
2009,04,26,04,30,5.00
2009,04,26,04,31,5.00
2009,04,26,04,32,5.00
2009,04,26,04,33,4.90
2009,04,26,04,34,4.90
2009,04,26,04,35,4.90
2009,04,26,04,36,4.90
2009,04,26,04,37,4.80
2009,04,26,04,38,4.80
2009,04,26,04,39,4.80
2009,04,26,04,40,4.70
2009,04,26,04,41,4.70
2009,04,26,04,42,4.70
2009,04,26,04,43,4.70
2009,04,26,04,44,4.60
2009,04,26,04,45,4.60
2009,04,26,04,46,4.60
2009,04,26,04,47,4.60
2009,04,26,04,48,4.60
2009,04,26,04,49,4.60
2009,04,26,04,50,4.60
2009,04,26,04,51,4.60
2009,04,26,04,52,4.60
2009,04,26,04,53,4.60
2009,04,26,04,54,4.60
2009,04,26,04,55,4.70
2009,04,26,04,56,4.70
2009,04,26,04,57,4.70
2009,04,26,04,58,4.70
2009,04,26,04,59,4.70
2009,04,26,05,00,4.70
2009,04,26,05,01,4.70
2009,04,26,05,02,4.70
2009,04,26,05,03,4.70
2009,04,26,05,04,4.70
2009,04,26,05,05,4.60
2009,04,26,05,06,4.60
2009,04,26,05,07,4.60
2009,04,26,05,08,4.60
2009,04,26,05,09,4.60
2009,04,26,05,10,4.60
2009,04,26,05,11,4.60
2009,04,26,05,12,4.60
2009,04,26,05,13,4.70
2009,04,26,05,14,4.70
2009,04,26,05,15,4.70
2009,04,26,05,16,4.70
2009,04,26,05,17,4.70
2009,04,26,05,18,4.70
2009,04,26,05,19,4.70
2009,04,26,05,20,4.70
2009,04,26,05,21,4.60
2009,04,26,05,22,4.60
2009,04,26,05,23,4.50
2009,04,26,05,24,4.50
2009,04,26,05,25,4.50
2009,04,26,05,26,4.40
2009,04,26,05,27,4.40
2009,04,26,05,28,4.30
2009,04,26,05,29,4.30
2009,04,26,05,30,4.30
2009,04,26,05,31,4.30
2009,04,26,05,32,4.20
2009,04,26,05,33,4.20
2009,04,26,05,34,4.20
2009,04,26,05,35,4.20
2009,04,26,05,36,4.10
2009,04,26,05,37,4.10
2009,04,26,05,38,4.10
2009,04,26,05,39,4.10
2009,04,26,05,40,4.00
2009,04,26,05,41,4.00
2009,04,26,05,42,4.00
2009,04,26,05,43,3.90
2009,04,26,05,44,3.90
2009,04,26,05,45,3.90
2009,04,26,05,46,3.90
2009,04,26,05,47,3.90
2009,04,26,05,48,3.90
2009,04,26,05,49,3.90
2009,04,26,05,50,3.90
2009,04,26,05,51,3.90
2009,04,26,05,52,3.80
2009,04,26,05,53,3.80
2009,04,26,05,54,3.80
2009,04,26,05,55,3.70
2009,04,26,05,56,3.70
2009,04,26,05,57,3.70
2009,04,26,05,58,3.60
2009,04,26,05,59,3.60
2009,04,26,06,00,3.60
2009,04,26,06,01,3.60
2009,04,26,06,02,3.50
2009,04,26,06,03,3.50
2009,04,26,06,04,3.50
2009,04,26,06,05,3.40
2009,04,26,06,06,3.30
2009,04,26,06,07,3.30
2009,04,26,06,08,3.30
2009,04,26,06,09,3.30
2009,04,26,06,10,3.20
2009,04,26,06,11,3.20
2009,04,26,06,12,3.20
2009,04,26,06,13,3.20
2009,04,26,06,14,3.10
2009,04,26,06,15,3.10
2009,04,26,06,16,3.10
2009,04,26,06,17,3.10
2009,04,26,06,18,3.10
2009,04,26,06,19,3.10
2009,04,26,06,20,3.10
2009,04,26,06,21,3.10
2009,04,26,06,22,3.10
2009,04,26,06,23,3.10
2009,04,26,06,24,3.10
2009,04,26,06,25,3.10
2009,04,26,06,26,3.10
2009,04,26,06,27,3.20
2009,04,26,06,28,3.20
2009,04,26,06,29,3.20
2009,04,26,06,30,3.20
2009,04,26,06,31,3.20
2009,04,26,06,32,3.20
2009,04,26,06,33,3.20
2009,04,26,06,34,3.20
2009,04,26,06,35,3.20
2009,04,26,06,36,3.20
2009,04,26,06,37,3.20
2009,04,26,06,38,3.20
2009,04,26,06,39,3.20
2009,04,26,06,40,3.30
2009,04,26,06,41,3.30
2009,04,26,06,42,3.30
2009,04,26,06,43,3.30
2009,04,26,06,44,3.30
2009,04,26,06,45,3.40
2009,04,26,06,46,3.40
2009,04,26,06,47,3.40
2009,04,26,06,48,3.50
2009,04,26,06,49,3.50
2009,04,26,06,50,3.50
2009,04,26,06,51,3.60
2009,04,26,06,52,3.60
2009,04,26,06,53,3.60
2009,04,26,06,54,3.70
2009,04,26,06,55,3.80
2009,04,26,06,56,3.90
2009,04,26,06,57,4.00
2009,04,26,06,58,4.10
2009,04,26,06,59,4.20
2009,04,26,07,00,4.40
2009,04,26,07,01,4.50
2009,04,26,07,02,4.60
2009,04,26,07,03,4.70
2009,04,26,07,04,4.80
2009,04,26,07,05,4.90
2009,04,26,07,06,5.00
2009,04,26,07,07,5.10
2009,04,26,07,08,5.10
2009,04,26,07,09,5.20
2009,04,26,07,10,5.30
2009,04,26,07,11,5.30
2009,04,26,07,12,5.40
2009,04,26,07,13,5.50
2009,04,26,07,14,5.50
2009,04,26,07,15,5.60
2009,04,26,07,16,5.70
2009,04,26,07,17,5.70
2009,04,26,07,18,5.80
2009,04,26,07,19,5.90
2009,04,26,07,20,5.90
2009,04,26,07,21,6.00
2009,04,26,07,22,6.00
2009,04,26,07,23,6.10
2009,04,26,07,24,6.20
2009,04,26,07,25,6.20
2009,04,26,07,26,6.20
2009,04,26,07,27,6.30
2009,04,26,07,28,6.30
2009,04,26,07,29,6.30
2009,04,26,07,30,6.40
2009,04,26,07,31,6.40
2009,04,26,07,32,6.50
2009,04,26,07,33,6.50
2009,04,26,07,34,6.60
2009,04,26,07,35,6.60
2009,04,26,07,36,6.70
2009,04,26,07,37,6.70
2009,04,26,07,38,6.80
2009,04,26,07,39,6.80
2009,04,26,07,40,6.90
2009,04,26,07,41,6.90
2009,04,26,07,42,7.00
2009,04,26,07,43,7.00
2009,04,26,07,44,7.10
2009,04,26,07,45,7.20
2009,04,26,07,46,7.20
2009,04,26,07,47,7.30
2009,04,26,07,48,7.30
2009,04,26,07,49,7.30
2009,04,26,07,50,7.40
2009,04,26,07,51,7.40
2009,04,26,07,52,7.50
2009,04,26,07,53,7.50
2009,04,26,07,54,7.50
2009,04,26,07,55,7.60
2009,04,26,07,56,7.60
2009,04,26,07,57,7.70
2009,04,26,07,58,7.70
2009,04,26,07,59,7.70
2009,04,26,08,00,7.70
2009,04,26,08,01,7.80
2009,04,26,08,02,7.80
2009,04,26,08,03,7.80
2009,04,26,08,04,7.80
2009,04,26,08,05,7.90
2009,04,26,08,06,7.90
2009,04,26,08,07,7.90
2009,04,26,08,08,8.00
2009,04,26,08,09,8.00
2009,04,26,08,10,8.10
2009,04,26,08,11,8.10
2009,04,26,08,12,8.10
2009,04,26,08,13,8.10
2009,04,26,08,14,8.10
2009,04,26,08,15,8.10
2009,04,26,08,16,8.20
2009,04,26,08,17,8.20
2009,04,26,08,18,8.20
2009,04,26,08,19,8.20
2009,04,26,08,20,8.30
2009,04,26,08,21,8.30
2009,04,26,08,22,8.30
2009,04,26,08,23,8.30
2009,04,26,08,24,8.30
2009,04,26,08,25,8.40
2009,04,26,08,26,8.40
2009,04,26,08,27,8.40
2009,04,26,08,28,8.40
2009,04,26,08,29,8.40
2009,04,26,08,30,8.50
2009,04,26,08,31,8.50
2009,04,26,08,32,8.50
2009,04,26,08,33,8.60
2009,04,26,08,34,8.60
2009,04,26,08,35,8.60
2009,04,26,08,36,8.70
2009,04,26,08,37,8.70
2009,04,26,08,38,8.80
2009,04,26,08,39,8.80
2009,04,26,08,40,8.90
2009,04,26,08,41,8.90
2009,04,26,08,42,8.90
2009,04,26,08,43,9.00
2009,04,26,08,44,9.00
2009,04,26,08,45,9.10
2009,04,26,08,46,9.10
2009,04,26,08,47,9.10
2009,04,26,08,48,9.10
2009,04,26,08,49,9.10
2009,04,26,08,50,9.10
2009,04,26,08,51,9.10
2009,04,26,08,52,9.10
2009,04,26,08,53,9.10
2009,04,26,08,54,9.10
2009,04,26,08,55,9.10
2009,04,26,08,56,9.10
2009,04,26,08,57,9.10
2009,04,26,08,58,9.10
2009,04,26,08,59,9.10
2009,04,26,09,00,9.20
2009,04,26,09,01,9.20
2009,04,26,09,02,9.20
2009,04,26,09,03,9.20
2009,04,26,09,04,9.20
2009,04,26,09,05,9.30
2009,04,26,09,06,9.30
2009,04,26,09,07,9.30
2009,04,26,09,08,9.30
2009,04,26,09,09,9.30
2009,04,26,09,10,9.30
2009,04,26,09,11,9.40
2009,04,26,09,12,9.40
2009,04,26,09,13,9.40
2009,04,26,09,14,9.50
2009,04,26,09,15,9.60
2009,04,26,09,16,9.60
2009,04,26,09,17,9.70
2009,04,26,09,18,9.80
2009,04,26,09,19,9.90
2009,04,26,09,20,9.90
2009,04,26,09,21,9.90
2009,04,26,09,22,9.90
2009,04,26,09,23,9.90
2009,04,26,09,24,9.80
2009,04,26,09,25,9.80
2009,04,26,09,26,9.80
2009,04,26,09,27,9.80
2009,04,26,09,28,9.80
2009,04,26,09,29,9.90
2009,04,26,09,30,9.90
2009,04,26,09,31,9.90
2009,04,26,09,32,10.00
2009,04,26,09,33,10.00
2009,04,26,09,34,10.00
2009,04,26,09,35,10.10
2009,04,26,09,36,10.10
2009,04,26,09,37,10.10
2009,04,26,09,38,10.20
2009,04,26,09,39,10.20
2009,04,26,09,40,10.20
2009,04,26,09,41,10.20
2009,04,26,09,42,10.20
2009,04,26,09,43,10.20
2009,04,26,09,44,10.10
2009,04,26,09,45,10.20
2009,04,26,09,46,10.20
2009,04,26,09,47,10.20
2009,04,26,09,48,10.20
2009,04,26,09,49,10.20
2009,04,26,09,50,10.20
2009,04,26,09,51,10.20
2009,04,26,09,52,10.20
2009,04,26,09,53,10.30
2009,04,26,09,54,10.30
2009,04,26,09,55,10.40
2009,04,26,09,56,10.50
2009,04,26,09,57,10.50
2009,04,26,09,58,10.50
2009,04,26,09,59,10.50
2009,04,26,10,00,10.40
2009,04,26,10,01,10.30
2009,04,26,10,02,10.30
2009,04,26,10,03,10.30
2009,04,26,10,04,10.30
2009,04,26,10,05,10.40
2009,04,26,10,06,10.40
2009,04,26,10,07,10.30
2009,04,26,10,08,10.30
2009,04,26,10,09,10.30
2009,04,26,10,10,10.30
2009,04,26,10,11,10.20
2009,04,26,10,12,10.20
2009,04,26,10,13,10.20
2009,04,26,10,14,10.30
2009,04,26,10,15,10.30
2009,04,26,10,16,10.30
2009,04,26,10,17,10.30
2009,04,26,10,18,10.30
2009,04,26,10,19,10.30
2009,04,26,10,20,10.30
2009,04,26,10,21,10.20
2009,04,26,10,22,10.20
2009,04,26,10,23,10.20
2009,04,26,10,24,10.20
2009,04,26,10,25,10.20
2009,04,26,10,26,10.20
2009,04,26,10,27,10.20
2009,04,26,10,28,10.20
2009,04,26,10,29,10.20
2009,04,26,10,30,10.20
2009,04,26,10,31,10.30
2009,04,26,10,32,10.30
2009,04,26,10,33,10.40
2009,04,26,10,34,10.40
2009,04,26,10,35,10.40
2009,04,26,10,36,10.40
2009,04,26,10,37,10.40
2009,04,26,10,38,10.30
2009,04,26,10,39,10.30
2009,04,26,10,40,10.40
2009,04,26,10,41,10.40
2009,04,26,10,42,10.40
2009,04,26,10,43,10.30
2009,04,26,10,44,10.30
2009,04,26,10,45,10.20
2009,04,26,10,46,10.30
2009,04,26,10,47,10.20
2009,04,26,10,48,10.10
2009,04,26,10,49,10.00
2009,04,26,10,50,9.90
2009,04,26,10,51,9.90
2009,04,26,10,52,9.90
2009,04,26,10,53,9.90
2009,04,26,10,54,9.80
2009,04,26,10,55,9.80
2009,04,26,10,56,9.80
2009,04,26,10,57,9.80
2009,04,26,10,58,9.80
2009,04,26,10,59,9.70
2009,04,26,11,00,9.70
2009,04,26,11,01,9.80
2009,04,26,11,02,9.80
2009,04,26,11,03,9.90
2009,04,26,11,04,10.00
2009,04,26,11,05,10.00
2009,04,26,11,06,10.10
2009,04,26,11,07,10.10
2009,04,26,11,08,10.20
2009,04,26,11,09,10.20
2009,04,26,11,10,10.30
2009,04,26,11,11,10.30
2009,04,26,11,12,10.30
2009,04,26,11,13,10.30
2009,04,26,11,14,10.20
2009,04,26,11,15,10.20
2009,04,26,11,16,10.20
2009,04,26,11,17,10.20
2009,04,26,11,18,10.20
2009,04,26,11,19,10.10
2009,04,26,11,20,10.10
2009,04,26,11,21,10.20
2009,04,26,11,22,10.20
2009,04,26,11,23,10.20
2009,04,26,11,24,10.30
2009,04,26,11,25,10.30
2009,04,26,11,26,10.30
2009,04,26,11,27,10.30
2009,04,26,11,28,10.40
2009,04,26,11,29,10.50
2009,04,26,11,30,10.60
2009,04,26,11,31,10.60
2009,04,26,11,32,10.60
2009,04,26,11,33,10.70
2009,04,26,11,34,10.70
2009,04,26,11,35,10.70
2009,04,26,11,36,10.80
2009,04,26,11,37,10.70
2009,04,26,11,38,10.70
2009,04,26,11,39,10.70
2009,04,26,11,40,10.70
2009,04,26,11,41,10.70
2009,04,26,11,42,10.70
2009,04,26,11,43,10.70
2009,04,26,11,44,10.80
2009,04,26,11,45,10.90
2009,04,26,11,46,11.00
2009,04,26,11,47,11.00
2009,04,26,11,48,11.10
2009,04,26,11,49,11.20
2009,04,26,11,50,11.20
2009,04,26,11,51,11.10
2009,04,26,11,52,11.10
2009,04,26,11,53,11.00
2009,04,26,11,54,10.90
2009,04,26,11,55,10.80
2009,04,26,11,56,10.80
2009,04,26,11,57,10.80
2009,04,26,11,58,10.90
2009,04,26,11,59,11.00
2009,04,26,12,00,11.10
2009,04,26,12,01,11.00
2009,04,26,12,02,11.00
2009,04,26,12,03,11.10
2009,04,26,12,04,11.10
2009,04,26,12,05,11.20
2009,04,26,12,06,11.20
2009,04,26,12,07,11.20
2009,04,26,12,08,11.10
2009,04,26,12,09,11.10
2009,04,26,12,10,11.10
2009,04,26,12,11,11.10
2009,04,26,12,12,11.10
2009,04,26,12,13,11.10
2009,04,26,12,14,11.00
2009,04,26,12,15,11.00
2009,04,26,12,16,10.90
2009,04,26,12,17,10.90
2009,04,26,12,18,11.00
2009,04,26,12,19,11.10
2009,04,26,12,20,11.20
2009,04,26,12,21,11.20
2009,04,26,12,22,11.30
2009,04,26,12,23,11.40
2009,04,26,12,24,11.50
2009,04,26,12,25,11.50
2009,04,26,12,26,11.60
2009,04,26,12,27,11.60
2009,04,26,12,28,11.60
2009,04,26,12,29,11.50
2009,04,26,12,30,11.50
2009,04,26,12,31,11.40
2009,04,26,12,32,11.30
2009,04,26,12,33,11.20
2009,04,26,12,34,11.20
2009,04,26,12,35,11.20
2009,04,26,12,36,11.10
2009,04,26,12,37,11.10
2009,04,26,12,38,11.10
2009,04,26,12,39,11.10
2009,04,26,12,40,11.20
2009,04,26,12,41,11.20
2009,04,26,12,42,11.30
2009,04,26,12,43,11.40
2009,04,26,12,44,11.50
2009,04,26,12,45,11.60
2009,04,26,12,46,11.70
2009,04,26,12,47,11.80
2009,04,26,12,48,11.70
2009,04,26,12,49,11.70
2009,04,26,12,50,11.70
2009,04,26,12,51,11.80
2009,04,26,12,52,11.80
2009,04,26,12,53,11.80
2009,04,26,12,54,11.80
2009,04,26,12,55,11.80
2009,04,26,12,56,11.80
2009,04,26,12,57,11.80
2009,04,26,12,58,11.80
2009,04,26,12,59,11.70
2009,04,26,13,00,11.60
2009,04,26,13,01,11.60
2009,04,26,13,02,11.50
2009,04,26,13,03,11.50
2009,04,26,13,04,11.50
2009,04,26,13,05,11.50
2009,04,26,13,06,11.50
2009,04,26,13,07,11.50
2009,04,26,13,08,11.50
2009,04,26,13,09,11.50
2009,04,26,13,10,11.40
2009,04,26,13,11,11.40
2009,04,26,13,12,11.40
2009,04,26,13,13,11.40
2009,04,26,13,14,11.40
2009,04,26,13,15,11.50
2009,04,26,13,16,11.60
2009,04,26,13,17,11.60
2009,04,26,13,18,11.60
2009,04,26,13,19,11.70
2009,04,26,13,20,11.70
2009,04,26,13,21,11.70
2009,04,26,13,22,11.80
2009,04,26,13,23,11.90
2009,04,26,13,24,12.00
2009,04,26,13,25,12.10
2009,04,26,13,26,12.10
2009,04,26,13,27,12.10
2009,04,26,13,28,12.00
2009,04,26,13,29,12.00
2009,04,26,13,30,12.10
2009,04,26,13,31,12.10
2009,04,26,13,32,12.20
2009,04,26,13,33,12.20
2009,04,26,13,34,12.30
2009,04,26,13,35,12.30
2009,04,26,13,36,12.40
2009,04,26,13,37,12.50
2009,04,26,13,38,12.60
2009,04,26,13,39,12.70
2009,04,26,13,40,12.70
2009,04,26,13,41,12.70
2009,04,26,13,42,12.70
2009,04,26,13,43,12.60
2009,04,26,13,44,12.50
2009,04,26,13,45,12.40
2009,04,26,13,46,12.30
2009,04,26,13,47,12.30
2009,04,26,13,48,12.20
2009,04,26,13,49,12.20
2009,04,26,13,50,12.10
2009,04,26,13,51,12.10
2009,04,26,13,52,12.10
2009,04,26,13,53,12.10
2009,04,26,13,54,12.10
2009,04,26,13,55,12.20
2009,04,26,13,56,12.20
2009,04,26,13,57,12.20
2009,04,26,13,58,12.20
2009,04,26,13,59,12.20
2009,04,26,14,00,12.30
2009,04,26,14,01,12.40
2009,04,26,14,02,12.40
2009,04,26,14,03,12.40
2009,04,26,14,04,12.50
2009,04,26,14,05,12.60
2009,04,26,14,06,12.60
2009,04,26,14,07,12.70
2009,04,26,14,08,12.60
2009,04,26,14,09,12.60
2009,04,26,14,10,12.60
2009,04,26,14,11,12.60
2009,04,26,14,12,12.60
2009,04,26,14,13,12.60
2009,04,26,14,14,12.50
2009,04,26,14,15,12.50
2009,04,26,14,16,12.40
2009,04,26,14,17,12.30
2009,04,26,14,18,12.20
2009,04,26,14,19,12.20
2009,04,26,14,20,12.30
2009,04,26,14,21,12.30
2009,04,26,14,22,12.20
2009,04,26,14,23,12.20
2009,04,26,14,24,12.20
2009,04,26,14,25,12.30
2009,04,26,14,26,12.30
2009,04,26,14,27,12.40
2009,04,26,14,28,12.40
2009,04,26,14,29,12.40
2009,04,26,14,30,12.40
2009,04,26,14,31,12.40
2009,04,26,14,32,12.40
2009,04,26,14,33,12.40
2009,04,26,14,34,12.40
2009,04,26,14,35,12.40
2009,04,26,14,36,12.40
2009,04,26,14,37,12.40
2009,04,26,14,38,12.30
2009,04,26,14,39,12.30
2009,04,26,14,40,12.20
2009,04,26,14,41,12.10
2009,04,26,14,42,12.10
2009,04,26,14,43,12.10
2009,04,26,14,44,12.20
2009,04,26,14,45,12.20
2009,04,26,14,46,12.20
2009,04,26,14,47,12.20
2009,04,26,14,48,12.30
2009,04,26,14,49,12.30
2009,04,26,14,50,12.30
2009,04,26,14,51,12.30
2009,04,26,14,52,12.40
2009,04,26,14,53,12.40
2009,04,26,14,54,12.50
2009,04,26,14,55,12.50
2009,04,26,14,56,12.60
2009,04,26,14,57,12.60
2009,04,26,14,58,12.70
2009,04,26,14,59,12.70
2009,04,26,15,00,12.60
2009,04,26,15,01,12.60
2009,04,26,15,02,12.70
2009,04,26,15,03,12.70
2009,04,26,15,04,12.70
2009,04,26,15,05,12.70
2009,04,26,15,06,12.70
2009,04,26,15,07,12.70
2009,04,26,15,08,12.70
2009,04,26,15,09,12.70
2009,04,26,15,10,12.70
2009,04,26,15,11,12.70
2009,04,26,15,12,12.70
2009,04,26,15,13,12.80
2009,04,26,15,14,12.80
2009,04,26,15,15,12.80
2009,04,26,15,16,12.70
2009,04,26,15,17,12.70
2009,04,26,15,18,12.70
2009,04,26,15,19,12.70
2009,04,26,15,20,12.70
2009,04,26,15,21,12.70
2009,04,26,15,22,12.70
2009,04,26,15,23,12.70
2009,04,26,15,24,12.70
2009,04,26,15,25,12.70
2009,04,26,15,26,12.70
2009,04,26,15,27,12.80
2009,04,26,15,28,12.80
2009,04,26,15,29,12.80
2009,04,26,15,30,12.80
2009,04,26,15,31,12.90
2009,04,26,15,32,12.90
2009,04,26,15,33,13.00
2009,04,26,15,34,13.00
2009,04,26,15,35,13.00
2009,04,26,15,36,12.90
2009,04,26,15,37,12.90
2009,04,26,15,38,12.90
2009,04,26,15,39,12.90
2009,04,26,15,40,12.90
2009,04,26,15,41,12.90
2009,04,26,15,42,12.90
2009,04,26,15,43,13.00
2009,04,26,15,44,13.00
2009,04,26,15,45,13.10
2009,04,26,15,46,13.10
2009,04,26,15,47,13.10
2009,04,26,15,48,13.20
2009,04,26,15,49,13.20
2009,04,26,15,50,13.20
2009,04,26,15,51,13.20
2009,04,26,15,52,13.20
2009,04,26,15,53,13.20
2009,04,26,15,54,13.20
2009,04,26,15,55,13.20
2009,04,26,15,56,13.30
2009,04,26,15,57,13.30
2009,04,26,15,58,13.40
2009,04,26,15,59,13.50
2009,04,26,16,00,13.60
2009,04,26,16,01,13.60
2009,04,26,16,02,13.70
2009,04,26,16,03,13.70
2009,04,26,16,04,13.80
2009,04,26,16,05,13.80
2009,04,26,16,06,13.90
2009,04,26,16,07,13.90
2009,04,26,16,08,13.90
2009,04,26,16,09,14.00
2009,04,26,16,10,14.00
2009,04,26,16,11,14.10
2009,04,26,16,12,14.10
2009,04,26,16,13,14.10
2009,04,26,16,14,14.10
2009,04,26,16,15,14.20
2009,04,26,16,16,14.20
2009,04,26,16,17,14.30
2009,04,26,16,18,14.30
2009,04,26,16,19,14.40
2009,04,26,16,20,14.40
2009,04,26,16,21,14.40
2009,04,26,16,22,14.40
2009,04,26,16,23,14.50
2009,04,26,16,24,14.60
2009,04,26,16,25,14.60
2009,04,26,16,26,14.60
2009,04,26,16,27,14.50
2009,04,26,16,28,14.50
2009,04,26,16,29,14.40
2009,04,26,16,30,14.40
2009,04,26,16,31,14.30
2009,04,26,16,32,14.20
2009,04,26,16,33,14.20
2009,04,26,16,34,14.20
2009,04,26,16,35,14.20
2009,04,26,16,36,14.20
2009,04,26,16,37,14.20
2009,04,26,16,38,14.30
2009,04,26,16,39,14.30
2009,04,26,16,40,14.30
2009,04,26,16,41,14.30
2009,04,26,16,42,14.30
2009,04,26,16,43,14.30
2009,04,26,16,44,14.30
2009,04,26,16,45,14.20
2009,04,26,16,46,14.20
2009,04,26,16,47,14.20
2009,04,26,16,48,14.20
2009,04,26,16,49,14.10
2009,04,26,16,50,14.10
2009,04,26,16,51,14.00
2009,04,26,16,52,14.00
2009,04,26,16,53,14.00
2009,04,26,16,54,14.10
2009,04,26,16,55,14.10
2009,04,26,16,56,14.10
2009,04,26,16,57,14.10
2009,04,26,16,58,14.10
2009,04,26,16,59,14.00
2009,04,26,17,00,13.90
2009,04,26,17,01,13.90
2009,04,26,17,02,13.90
2009,04,26,17,03,13.80
2009,04,26,17,04,13.80
2009,04,26,17,05,13.80
2009,04,26,17,06,13.80
2009,04,26,17,07,13.80
2009,04,26,17,08,13.80
2009,04,26,17,09,13.80
2009,04,26,17,10,13.80
2009,04,26,17,11,13.70
2009,04,26,17,12,13.60
2009,04,26,17,13,13.50
2009,04,26,17,14,13.40
2009,04,26,17,15,13.40
2009,04,26,17,16,13.30
2009,04,26,17,17,13.30
2009,04,26,17,18,13.40
2009,04,26,17,19,13.40
2009,04,26,17,20,13.40
2009,04,26,17,21,13.40
2009,04,26,17,22,13.40
2009,04,26,17,23,13.40
2009,04,26,17,24,13.30
2009,04,26,17,25,13.30
2009,04,26,17,26,13.30
2009,04,26,17,27,13.30
2009,04,26,17,28,13.30
2009,04,26,17,29,13.30
2009,04,26,17,30,13.30
2009,04,26,17,31,13.30
2009,04,26,17,32,13.30
2009,04,26,17,33,13.30
2009,04,26,17,34,13.30
2009,04,26,17,35,13.30
2009,04,26,17,36,13.30
2009,04,26,17,37,13.30
2009,04,26,17,38,13.40
2009,04,26,17,39,13.40
2009,04,26,17,40,13.40
2009,04,26,17,41,13.40
2009,04,26,17,42,13.40
2009,04,26,17,43,13.40
2009,04,26,17,44,13.30